Jendouba, Tunisia

2:00 AM CET on October 17, 2019 (GMT +0100)
Jendouba

Weather History for DTTN - August, 2019

Change the Weather History Date:

Monday, August 26, 2019

  Actual Average Record
Temperature  
Mean Temperature 84 °F -  
Max Temperature 99 °F 90 °F - ()
Min Temperature 70 °F 63 °F - ()
Cooling Degree Days 20    
Growing Degree Days 34 (Base 50)    
Moisture  
Dew Point 66 °F    
Average Humidity 54    
Maximum Humidity 84    
Minimum Humidity 19    
Precipitation  
Precipitation 0.00 in 0.04 in - ()
Sea Level Pressure  
Sea Level Pressure 29.95 in    
Wind  
Wind Speed 4 mph ()    
Max Wind Speed 12 mph    
Max Gust Speed -    
Visibility 6.2 miles    
Events      
T = Trace of Precipitation, MM = Missing Value Source: Averaged Metar Reports

Daily Weather History Graph

Daily Weather History Graph

Search for Another Location

Airport or City:

Astronomy

Aug. 26, 2019 Rise Set
Actual Time 5:50 AM CET 7:01 PM CET
Civil Twilight 5:24 AM CET 7:28 PM CET
Nautical Twilight 4:52 AM CET 8:00 PM CET
Astronomical Twilight 4:19 AM CET 8:33 PM CET
Moon 1:07 AM CET (8/26) 4:02 PM CET (8/26)
Length of Visible Light 14h 04m
Length of Day
13h 10m
Waning Crescent, 21% of the Moon is Illuminated
Aug 26
Waning Crescent
Aug 30
New
Sep 6
First Quarter
Sep 14
Full
Sep 22
Last Quarter

Hourly Weather History & Observations

Time (CET) Temp. Heat Index Dew Point Humidity Pressure Visibility Wind Dir Wind Speed Gust Speed Precip Events Conditions
1:00 AM 72 °F - 65 °F 73% 29.99 in 5 mi West 3.5 mph - -   Partly Cloudy
1:00 AM 71.6 °F - 64.4 °F 78% 29.98 in 5.0 mi West 4.6 mph - N/A   Scattered Clouds
3:00 AM 71.6 °F - 66.2 °F 83% 29.98 in 5.0 mi West 4.6 mph - N/A   Scattered Clouds
4:00 AM 71 °F - 67 °F 82% 29.99 in 5 mi SSW 4.6 mph - -   Scattered Clouds
4:00 AM 71.6 °F - 66.2 °F 83% 29.98 in 5.0 mi SSW 4.6 mph - N/A   Scattered Clouds
6:00 AM 71.6 °F - 66.2 °F 83% 29.98 in 6.2 mi SW 2.3 mph - N/A   Scattered Clouds
7:00 AM 71 °F - 67 °F 84% 30.01 in 7 mi Calm Calm - -   Mostly Cloudy
10:00 AM 82 °F - 69 °F 55% 30.00 in 9 mi East 4.6 mph - -   Partly Cloudy
10:00 AM 82.4 °F 85.4 °F 68.0 °F 62% 29.98 in 6.2 mi East 4.6 mph - N/A   Scattered Clouds
11:00 AM 86.0 °F 89.4 °F 68.0 °F 55% 29.98 in 6.2 mi NNW 2.3 mph - N/A   Scattered Clouds
12:00 PM 91.4 °F 95.4 °F 68.0 °F 46% 29.98 in 6.2 mi Variable 3.5 mph - N/A   Scattered Clouds
1:00 PM 94 °F - 64 °F 27% 29.94 in 9 mi ENE 3.5 mph - -   Scattered Clouds
1:00 PM 93.2 °F 94.9 °F 64.4 °F 38% 29.95 in 6.2 mi ENE 3.5 mph - N/A   Partly Cloudy
3:00 PM 98.6 °F 99.4 °F 60.8 °F 29% 29.92 in 6.2 mi NW 3.5 mph - N/A   Partly Cloudy
4:00 PM 99 °F - 61 °F 19% 29.88 in 9 mi NNE 4.6 mph - -   Scattered Clouds
4:00 PM 98.6 °F 99.4 °F 60.8 °F 29% 29.92 in 6.2 mi NNE 4.6 mph - N/A   Partly Cloudy
5:00 PM 98.6 °F 98.5 °F 59.0 °F 27% 29.92 in 6.2 mi NNE 5.8 mph - N/A   Partly Cloudy
6:00 PM 98.6 °F 99.4 °F 60.8 °F 29% 29.89 in 6.2 mi NNE 4.6 mph - N/A   Partly Cloudy
7:00 PM 94 °F - 65 °F 28% 29.88 in 9 mi NNE 5.8 mph - -   Scattered Clouds
7:00 PM 95.0 °F 97.0 °F 64.4 °F 36% 29.89 in 6.2 mi NNE 5.8 mph - N/A   Partly Cloudy
9:00 PM 86.0 °F 90.4 °F 69.8 °F 58% 29.95 in 5.0 mi NE 11.5 mph - N/A   Partly Cloudy
10:00 PM 84 °F - 71 °F 56% 29.94 in 5 mi NE 8.1 mph - -  
10:00 PM 84.2 °F 89.6 °F 71.6 °F 66% 29.95 in 5.0 mi NE 8.1 mph - N/A   Unknown
11:00 PM 82.4 °F 87.2 °F 71.6 °F 70% 29.95 in 5.0 mi NE 5.8 mph - N/A   Unknown